N6OL Weather Reports


Display with metric or nautical units.
time (UTC)temp
F
wind
direction
speed
MPH
gust
MPH
rain 1hr
in
rain 24hr
in
rain mn
in
humidity
%
barometer
mb
20260506051003 57 266 1.0 3.0 0.00 0.09 0.09 80 1017.7
20260506050503 57 268 2.0 3.0 0.00 0.09 0.09 80 1017.6
20260506045003 57 268 2.0 5.0 0.00 0.09 0.09 80 1017.4
20260506044503 57 275 2.0 5.0 0.00 0.09 0.09 80 1017.4
20260506044003 57 276 2.0 4.0 0.00 0.09 0.09 79 1017.4
20260506043503 57 273 2.0 4.0 0.00 0.09 0.09 79 1017.3
20260506043003 58 274 2.0 4.0 0.00 0.09 0.09 79 1017.4
20260506042503 58 264 2.0 4.0 0.00 0.09 0.09 79 1017.2
20260506042003 58 264 3.0 7.0 0.00 0.09 0.09 79 1017.3
20260506041503 58 269 3.0 7.0 0.00 0.09 0.09 79 1017.2
20260506041003 58 269 3.0 6.0 0.00 0.09 0.09 78 1017.1
20260506040503 58 269 3.0 7.0 0.00 0.09 0.09 78 1017.1
20260506040003 58 266 4.0 7.0 0.00 0.09 0.09 78 1016.8
20260506035503 58 264 4.0 7.0 0.00 0.09 0.09 77 1016.7
20260506035003 58 263 4.0 7.0 0.00 0.09 0.09 77 1016.5
20260506034503 58 260 3.0 7.0 0.00 0.09 0.09 77 1016.5
20260506034003 58 254 3.0 8.0 0.00 0.09 0.09 77 1016.3
20260506033503 58 261 4.0 9.0 0.00 0.09 0.09 76 1016.3
20260506033003 58 268 5.0 9.0 0.00 0.09 0.09 76 1016.3
20260506032503 58 268 5.0 8.0 0.00 0.09 0.09 76 1016.3
20260506032003 58 259 5.0 8.0 0.00 0.09 0.09 76 1016.1
20260506031524 58 250 5.0 11.0 0.00 0.09 0.09 75 1016.3
20260506031003 59 248 5.0 11.0 0.00 0.09 0.09 75 1016.1
20260506030503 59 256 6.0 11.0 0.00 0.09 0.09 75 1016.2
20260506030003 59 264 6.0 11.0 0.00 0.09 0.09 74 1016.1
20260506025503 59 271 6.0 11.0 0.00 0.09 0.09 74 1016.1
20260506025003 59 276 7.0 11.0 0.00 0.09 0.09 74 1016.0
20260506024503 59 264 6.0 13.0 0.00 0.09 0.09 73 1016.0
20260506024003 59 262 6.0 13.0 0.00 0.09 0.09 73 1015.9
20260506023503 59 267 8.0 13.0 0.00 0.09 0.09 73 1015.9
20260506023003 60 261 8.0 13.0 0.00 0.09 0.09 73 1015.9
20260506022503 60 258 9.0 13.0 0.00 0.09 0.09 73 1015.8
20260506022003 60 254 9.0 17.0 0.00 0.09 0.09 74 1015.7
20260506021503 60 249 9.0 17.0 0.00 0.09 0.09 73 1015.8
20260506021003 60 252 10.0 15.0 0.00 0.09 0.09 73 1015.7
20260506020503 61 256 10.0 15.0 0.00 0.09 0.09 73 1015.8
20260506020003 61 255 9.0 15.0 0.00 0.09 0.09 72 1015.7
20260506015503 61 249 9.0 15.0 0.00 0.09 0.09 72 1015.6
20260506015003 61 248 9.0 15.0 0.00 0.09 0.09 72 1015.5
20260506014503 61 246 9.0 15.0 0.00 0.09 0.09 71 1015.5
20260506014003 62 247 9.0 14.0 0.00 0.09 0.09 70 1015.4
20260506013503 62 254 8.0 12.0 0.00 0.09 0.09 70 1015.7
20260506013003 62 259 8.0 13.0 0.00 0.09 0.09 69 1015.5
20260506012503 62 258 8.0 13.0 0.00 0.09 0.09 68 1015.6
20260506012003 63 260 8.0 12.0 0.00 0.09 0.09 68 1015.5
20260506011503 63 261 6.0 12.0 0.00 0.09 0.09 67 1015.4
20260506011003 63 252 4.0 10.0 0.00 0.09 0.09 68 1015.4
20260506010503 63 251 4.0 10.0 0.00 0.09 0.09 68 1015.5
20260506010003 63 247 6.0 10.0 0.00 0.09 0.09 67 1015.5
20260506005503 63 246 5.0 9.0 0.00 0.09 0.09 67 1015.4
20260506005003 63 249 5.0 10.0 0.00 0.09 0.09 66 1015.4
20260506004504 63 249 5.0 10.0 0.00 0.09 0.09 66 1015.4
20260506004003 63 250 6.0 10.0 0.00 0.09 0.09 66 1015.3
20260506003503 63 248 5.0 10.0 0.00 0.09 0.09 65 1015.3
20260506003003 63 234 5.0 10.0 0.00 0.09 0.09 66 1015.3
20260506002503 63 234 7.0 12.0 0.00 0.09 0.09 66 1015.2
20260506002003 63 242 7.0 14.0 0.00 0.09 0.09 66 1015.3
20260506001503 63 245 7.0 14.0 0.00 0.09 0.09 67 1015.2
20260506001003 63 244 7.0 14.0 0.00 0.09 0.09 66 1015.2
20260506000503 63 242 6.0 13.0 0.00 0.09 0.09 66 1015.1
20260506000003 63 240 7.0 13.0 0.00 0.09 0.09 66 1015.0
20260505235524 63 238 7.0 13.0 0.00 0.09 0.09 66 1015.1
20260505235024 63 247 8.0 12.0 0.00 0.09 0.09 67 1015.1
20260505234503 63 252 8.0 14.0 0.00 0.09 0.09 67 1015.1
20260505234003 63 255 7.0 14.0 0.00 0.09 0.09 66 1015.1
20260505233503 63 268 6.0 14.0 0.00 0.09 0.09 67 1015.2
20260505233003 63 275 6.0 12.0 0.00 0.09 0.09 67 1015.2
20260505232503 63 276 6.0 12.0 0.00 0.09 0.09 67 1015.2
20260505232003 63 278 6.0 12.0 0.00 0.09 0.09 66 1015.2
20260505231503 63 279 6.0 11.0 0.00 0.09 0.09 66 1015.3
20260505231024 64 275 5.0 10.0 0.00 0.09 0.09 66 1015.3
20260505230524 64 263 6.0 12.0 0.00 0.09 0.09 66 1015.3
20260505230003 64 277 6.0 12.0 0.00 0.09 0.09 65 1015.1
20260505225503 64 282 6.0 12.0 0.00 0.09 0.09 65 1015.2
20260505225003 64 288 6.0 13.0 0.00 0.09 0.09 65 1015.2
20260505224503 64 296 6.0 13.0 0.00 0.09 0.09 65 1015.2
20260505224003 64 286 5.0 12.0 0.00 0.09 0.09 65 1015.2
20260505223503 64 287 5.0 11.0 0.00 0.09 0.09 64 1015.2
20260505223003 64 281 5.0 11.0 0.00 0.09 0.09 64 1015.3
20260505222503 64 282 5.0 12.0 0.00 0.09 0.09 63 1015.3
20260505222003 64 284 6.0 13.0 0.00 0.09 0.09 63 1015.4
20260505221503 64 288 7.0 13.0 0.00 0.09 0.09 64 1015.3
20260505221003 65 303 7.0 14.0 0.00 0.09 0.09 63 1015.3
20260505220503 64 309 7.0 14.0 0.00 0.09 0.09 64 1015.4
20260505220003 65 306 7.0 14.0 0.00 0.09 0.09 64 1015.3
20260505215503 65 309 6.0 14.0 0.00 0.09 0.09 63 1015.4
20260505215003 65 308 6.0 14.0 0.00 0.09 0.09 65 1015.5
20260505214503 64 306 6.0 11.0 0.00 0.09 0.09 65 1015.5
20260505214003 64 307 7.0 13.0 0.00 0.09 0.09 64 1015.6
20260505213503 64 293 7.0 13.0 0.00 0.09 0.09 64 1015.6
20260505213003 65 289 7.0 16.0 0.00 0.09 0.09 63 1015.5
20260505212503 65 282 7.0 16.0 0.00 0.09 0.09 64 1015.6
20260505212003 64 288 7.0 13.0 0.00 0.09 0.09 63 1015.7
20260505211503 64 309 7.0 14.0 0.00 0.09 0.09 63 1015.7
20260505211003 64 310 7.0 14.0 0.00 0.09 0.09 63 1015.7
20260505210503 64 313 6.0 13.0 0.00 0.09 0.09 63 1015.8
20260505210003 64 312 7.0 16.0 0.00 0.09 0.09 63 1015.7
20260505205503 64 313 7.0 16.0 0.00 0.09 0.09 63 1015.7
20260505205003 64 320 8.0 16.0 0.00 0.09 0.09 64 1015.7
20260505204524 64 317 9.0 16.0 0.00 0.09 0.09 63 1015.7
20260505204003 64 297 7.0 15.0 0.00 0.09 0.09 64 1015.6
20260505203503 64 306 7.0 14.0 0.00 0.09 0.09 65 1015.6
20260505203003 63 320 6.0 13.0 0.00 0.09 0.09 65 1015.7
20260505202503 63 320 7.0 14.0 0.00 0.09 0.09 65 1015.7
20260505202003 64 323 7.0 14.0 0.00 0.09 0.09 64 1015.8
20260505201503 64 327 6.0 12.0 0.00 0.09 0.09 65 1015.8
20260505201003 64 326 6.0 13.0 0.00 0.09 0.09 64 1015.8
20260505200503 64 316 6.0 13.0 0.00 0.09 0.09 64 1015.9
20260505200003 64 309 6.0 14.0 0.00 0.09 0.09 66 1015.8
20260505195503 64 317 7.0 14.0 0.00 0.09 0.09 65 1015.8
20260505195003 64 313 7.0 14.0 0.00 0.09 0.09 66 1015.8
20260505194503 64 295 7.0 14.0 0.00 0.09 0.09 64 1015.8
20260505194024 63 292 7.0 13.0 0.00 0.09 0.09 65 1015.8
20260505193503 64 291 7.0 13.0 0.00 0.09 0.09 65 1015.9
20260505193003 64 287 7.0 15.0 0.00 0.09 0.09 67 1016.0
20260505192503 63 296 6.0 15.0 0.00 0.09 0.09 66 1016.0
20260505192003 63 299 7.0 15.0 0.00 0.09 0.09 66 1015.9
20260505191503 63 304 7.0 15.0 0.00 0.09 0.09 67 1015.9
20260505191003 63 297 7.0 13.0 0.00 0.09 0.09 68 1015.9
20260505190503 63 301 7.0 13.0 0.00 0.09 0.09 68 1015.9
20260505190003 62 318 7.0 14.0 0.00 0.09 0.09 71 1015.7
20260505185503 61 319 6.0 14.0 0.00 0.09 0.09 74 1015.8
20260505185004 61 324 6.0 12.0 0.00 0.09 0.09 74 1015.7
20260505184503 60 320 5.0 12.0 0.00 0.09 0.09 74 1015.7
20260505184003 60 308 5.0 11.0 0.00 0.09 0.09 75 1015.7
20260505183503 60 306 6.0 12.0 0.00 0.09 0.09 75 1015.8
20260505183003 60 296 6.0 12.0 0.00 0.09 0.09 76 1015.6
20260505182503 59 293 5.0 10.0 0.00 0.09 0.09 76 1015.7
20260505182003 59 312 4.0 10.0 0.00 0.09 0.09 77 1015.6
20260505181524 59 320 4.0 10.0 0.00 0.09 0.09 77 1015.5
20260505181003 59 321 5.0 10.0 0.00 0.09 0.09 78 1015.6
20260505180524 59 316 5.0 10.0 0.00 0.09 0.09 79 1015.7
20260505180003 58 317 5.0 10.0 0.00 0.09 0.09 79 1015.7
20260505175524 58 316 5.0 10.0 0.00 0.09 0.09 80 1015.8
20260505175025 58 300 6.0 12.0 0.00 0.09 0.09 80 1015.6
20260505174503 58 288 7.0 12.0 0.00 0.09 0.09 81 1015.5
20260505174024 58 294 6.0 11.0 0.00 0.09 0.09 81 1015.6
20260505173503 58 306 4.0 10.0 0.00 0.09 0.09 82 1015.5
20260505173003 58 304 4.0 9.0 0.00 0.09 0.09 83 1015.4
20260505172503 57 305 4.0 9.0 0.00 0.09 0.09 83 1015.4
20260505172024 57 304 5.0 9.0 0.00 0.09 0.09 83 1015.3
20260505171503 57 301 4.0 9.0 0.00 0.09 0.09 84 1015.3
20260505171003 57 291 5.0 12.0 0.00 0.09 0.09 84 1015.2
20260505170503 57 287 5.0 12.0 0.00 0.09 0.09 84 1015.2
20260505170003 57 288 5.0 10.0 0.00 0.09 0.09 84 1015.2
20260505165524 56 281 5.0 10.0 0.00 0.09 0.09 85 1015.2
20260505165003 56 272 5.0 10.0 0.00 0.09 0.09 85 1015.2
20260505164503 56 266 4.0 9.0 0.00 0.09 0.09 86 1015.2
20260505164003 56 272 4.0 9.0 0.00 0.09 0.09 86 1015.2
20260505163503 56 276 4.0 9.0 0.00 0.09 0.09 86 1015.3
20260505163003 56 266 5.0 9.0 0.00 0.09 0.09 86 1015.2
20260505162503 56 261 5.0 9.0 0.00 0.09 0.09 86 1015.2
20260505162003 56 265 4.0 8.0 0.00 0.09 0.09 86 1015.2
20260505161503 56 291 3.0 8.0 0.00 0.09 0.09 86 1015.2
20260505161003 56 302 2.0 8.0 0.00 0.09 0.09 86 1015.1
20260505160524 56 248 1.0 4.0 0.00 0.09 0.09 86 1015.2
20260505153024 55 218 2.0 4.0 0.00 0.09 0.09 85 1015.0
20260505152503 55 207 2.0 4.0 0.00 0.09 0.09 86 1015.0
20260505152024 55 208 2.0 4.0 0.00 0.09 0.09 86 1014.9
20260505151503 55 223 1.0 3.0 0.00 0.09 0.09 86 1014.8
20260505151003 55 230 1.0 3.0 0.00 0.09 0.09 86 1014.8
20260505150503 55 235 1.0 3.0 0.00 0.09 0.09 86 1014.8
20260505140503 54 240 0.0 2.0 0.00 0.09 0.09 87 1014.3
20260505125003 53 259 0.0 3.0 0.00 0.09 0.09 87 1014.4
20260505124503 53 265 1.0 3.0 0.01 0.09 0.09 87 1014.4
20260505124003 53 277 0.0 3.0 0.01 0.09 0.09 87 1014.5
20260505123503 53 360 0.0 1.0 0.01 0.09 0.09 88 1014.5
20260505123003 53 0 0.0 1.0 0.01 0.09 0.09 88 1014.3
20260505122503 53 246 0.0 5.0 0.01 0.09 0.09 88 1014.4
20260505122003 53 251 0.0 5.0 0.01 0.09 0.09 88 1014.3
20260505121503 53 245 1.0 5.0 0.01 0.09 0.09 88 1014.3
20260505121003 53 239 3.0 7.0 0.01 0.09 0.09 88 1014.2
20260505120503 53 230 3.0 7.0 0.01 0.09 0.09 88 1014.2
20260505120004 53 228 3.0 5.0 0.01 0.09 0.09 88 1014.2
20260505115503 53 232 3.0 7.0 0.01 0.09 0.09 88 1014.3
20260505115024 53 232 4.0 7.0 0.01 0.09 0.09 88 1014.9
20260505114524 53 236 4.0 7.0 0.00 0.08 0.08 88 1014.3
20260505114003 53 240 3.0 7.0 0.00 0.08 0.08 88 1014.3
20260505113503 53 257 3.0 5.0 0.00 0.08 0.08 88 1014.4
20260505113003 53 275 3.0 4.0 0.00 0.08 0.08 88 1014.7
20260505112503 53 276 3.0 6.0 0.00 0.08 0.08 88 1014.6
20260505112003 53 277 3.0 7.0 0.00 0.08 0.08 88 1014.6
20260505111503 53 268 4.0 7.0 0.00 0.08 0.08 89 1014.7
20260505111024 53 260 4.0 7.0 0.00 0.08 0.08 89 1014.5
20260505110503 53 258 4.0 7.0 0.00 0.08 0.08 89 1014.5
20260505102004 53 271 0.0 2.0 0.00 0.08 0.08 89 1014.3
20260505101503 53 291 1.0 4.0 0.00 0.08 0.08 89 1014.2
20260505101024 53 301 1.0 4.0 0.00 0.08 0.08 89 1014.4
20260505100503 53 0 0.0 1.0 0.01 0.08 0.08 89 1014.5
20260505100003 53 221 0.0 1.0 0.01 0.08 0.08 89 1014.6
20260505095503 53 222 0.0 2.0 0.02 0.08 0.08 89 1014.5
20260505095024 53 224 0.0 2.0 0.03 0.08 0.08 89 1014.5
20260505094503 53 0 0.0 3.0 0.04 0.08 0.08 89 1014.6
20260505094003 53 213 0.0 3.0 0.05 0.08 0.08 89 1014.6
20260505093524 53 224 1.0 3.0 0.05 0.08 0.08 89 1014.7
20260505093029 53 234 2.0 3.0 0.05 0.08 0.08 89 1014.9
20260505092524 53 230 2.0 3.0 0.05 0.08 0.08 88 1014.9
20260505092003 53 227 2.0 3.0 0.05 0.08 0.08 88 1014.9
20260505091503 53 230 2.0 3.0 0.05 0.08 0.08 88 1015.0
20260505091003 53 233 2.0 3.0 0.05 0.08 0.08 88 1014.9
20260505090503 53 232 1.0 3.0 0.04 0.07 0.07 88 1015.1
20260505090016 53 224 1.0 3.0 0.04 0.07 0.07 88 1015.1
20260505085503 53 224 2.0 3.0 0.04 0.06 0.06 87 1015.1
20260505085003 53 223 1.0 3.0 0.03 0.05 0.05 87 1015.1
20260505084524 53 226 2.0 4.0 0.02 0.04 0.04 87 1015.1
20260505084003 53 227 2.0 5.0 0.02 0.03 0.03 87 1015.0
20260505083524 53 226 2.0 5.0 0.02 0.03 0.03 87 1015.0
20260505083003 53 230 3.0 5.0 0.02 0.03 0.03 86 1015.0
20260505082503 53 229 3.0 5.0 0.02 0.03 0.03 86 1015.0
20260505082003 53 231 3.0 5.0 0.03 0.03 0.03 86 1015.0
20260505081503 53 237 3.0 5.0 0.03 0.03 0.03 86 1015.2
20260505081003 53 238 2.0 5.0 0.03 0.03 0.03 85 1015.2
20260505080524 53 243 2.0 6.0 0.03 0.03 0.03 85 1015.2
20260505080024 53 250 3.0 6.0 0.03 0.03 0.03 85 1015.3
20260505075503 53 259 3.0 7.0 0.02 0.02 0.02 84 1015.4
20260505075024 53 260 3.0 7.0 0.02 0.02 0.02 84 1015.4
20260505074503 53 263 4.0 7.0 0.02 0.02 0.02 84 1015.4
20260505074024 53 267 3.0 7.0 0.01 0.01 0.01 83 1015.4
20260505073503 53 272 3.0 7.0 0.01 0.01 0.01 83 1015.5
20260505073024 53 280 3.0 7.0 0.01 0.01 0.01 83 1015.6
20260505072503 54 288 3.0 7.0 0.01 0.01 0.01 82 1015.4
20260505072003 54 288 4.0 7.0 0.00 0.00 0.00 82 1015.6
20260505071503 54 284 4.0 7.0 0.00 0.00 0.00 82 1015.4
20260505071003 54 280 3.0 7.0 0.00 0.00 0.00 82 1015.4
20260505070524 54 280 3.0 7.0 0.00 0.00 0.00 82 1015.5
20260505070024 54 286 3.0 8.0 0.00 0.00 0.00 81 1015.5
20260505065524 54 279 3.0 8.0 0.00 0.00 0.00 81 1015.4
20260505065003 54 271 4.0 9.0 0.00 0.00 0.00 81 1015.2
20260505064503 54 268 4.0 9.0 0.00 0.00 0.00 81 1015.2
20260505064003 54 264 4.0 10.0 0.00 0.00 0.00 82 1015.3
20260505063524 54 270 4.0 10.0 0.00 0.00 0.00 82 1015.2
20260505063003 54 274 4.0 9.0 0.00 0.00 0.00 81 1015.1
20260505062503 54 269 5.0 9.0 0.00 0.00 0.00 81 1015.1
20260505062003 54 267 5.0 11.0 0.00 0.00 0.00 80 1015.0
20260505061503 54 266 5.0 11.0 0.00 0.00 0.00 80 1014.8
20260505061003 55 268 5.0 9.0 0.00 0.00 0.00 79 1015.0
20260505060503 55 270 4.0 9.0 0.00 0.00 0.00 79 1015.0
20260505060003 55 277 3.0 8.0 0.00 0.00 0.00 78 1014.9
20260505055524 55 280 3.0 7.0 0.00 0.00 0.00 77 1015.1
20260505055003 55 278 3.0 9.0 0.00 0.00 0.00 76 1014.9
20260505054503 55 267 4.0 9.0 0.00 0.00 0.00 76 1014.9
20260505054024 55 258 4.0 9.0 0.00 0.00 0.00 76 1014.9
20260505053503 55 258 4.0 9.0 0.00 0.00 0.00 76 1015.1
20260505053003 55 264 4.0 9.0 0.00 0.00 0.00 76 1015.0
20260505052503 55 268 5.0 11.0 0.00 0.00 0.00 76 1015.1
20260505052003 55 273 5.0 11.0 0.00 0.00 0.00 76 1015.1